| time (UTC) | temp F | wind direction | speed MPH | gust MPH | rain 1hr in | rain 24hr in | rain mn in | humidity % | barometer mb |
| 20260507151604 | 52 | 214 | 0.0 | 3.0 | 0.00 | 0.00 | 0.00 | 73 | 1020.1 |
| 20260507151104 | 52 | 218 | 0.0 | 3.0 | 0.00 | 0.00 | 0.00 | 73 | 1020.1 |
| 20260507150604 | 52 | 219 | 1.0 | 2.0 | 0.00 | 0.00 | 0.00 | 73 | 1020.0 |
| 20260507150104 | 52 | 215 | 0.0 | 2.0 | 0.00 | 0.00 | 0.00 | 73 | 1020.0 |
| 20260507145604 | 51 | 216 | 0.0 | 3.0 | 0.00 | 0.00 | 0.00 | 73 | 1020.0 |
| 20260507145104 | 51 | 215 | 0.0 | 3.0 | 0.00 | 0.00 | 0.00 | 73 | 1020.0 |
| 20260507144604 | 51 | 215 | 0.0 | 2.0 | 0.00 | 0.00 | 0.00 | 73 | 1020.0 |
| 20260507144104 | 51 | 217 | 1.0 | 2.0 | 0.00 | 0.00 | 0.00 | 73 | 1019.9 |
| 20260507143104 | 51 | 214 | 0.0 | 1.0 | 0.00 | 0.00 | 0.00 | 74 | 1020.0 |
| 20260507142604 | 51 | 214 | 0.0 | 1.0 | 0.00 | 0.00 | 0.00 | 73 | 1019.9 |
| 20260507142104 | 51 | 220 | 0.0 | 1.0 | 0.00 | 0.00 | 0.00 | 74 | 1019.9 |
| 20260507141603 | 51 | 217 | 0.0 | 2.0 | 0.00 | 0.00 | 0.00 | 74 | 1019.8 |
| 20260507141103 | 51 | 218 | 0.0 | 2.0 | 0.00 | 0.00 | 0.00 | 74 | 1019.8 |
| 20260507140605 | 50 | 216 | 0.0 | 1.0 | 0.00 | 0.00 | 0.00 | 74 | 1019.8 |
| 20260507140104 | 50 | 215 | 0.0 | 1.0 | 0.00 | 0.00 | 0.00 | 74 | 1019.7 |
| 20260507135604 | 50 | 215 | 0.0 | 0.0 | 0.00 | 0.00 | 0.00 | 74 | 1019.8 |
| 20260507135104 | 50 | 218 | 0.0 | 0.0 | 0.00 | 0.00 | 0.00 | 74 | 1019.7 |
| 20260507134603 | 50 | 219 | 0.0 | 0.0 | 0.00 | 0.00 | 0.00 | 74 | 1019.8 |
| 20260507134104 | 50 | 217 | 0.0 | 1.0 | 0.00 | 0.00 | 0.00 | 73 | 1019.8 |
| 20260507133604 | 50 | 215 | 0.0 | 2.0 | 0.00 | 0.00 | 0.00 | 73 | 1019.8 |
| 20260507133104 | 50 | 217 | 0.0 | 2.0 | 0.00 | 0.00 | 0.00 | 73 | 1019.8 |
| 20260507132604 | 50 | 217 | 0.0 | 3.0 | 0.00 | 0.00 | 0.00 | 74 | 1019.8 |
| 20260507132104 | 50 | 221 | 0.0 | 3.0 | 0.00 | 0.00 | 0.00 | 74 | 1019.9 |
| 20260507131604 | 50 | 220 | 0.0 | 2.0 | 0.00 | 0.00 | 0.00 | 74 | 1019.9 |
| 20260507131104 | 50 | 217 | 0.0 | 2.0 | 0.00 | 0.00 | 0.00 | 74 | 1019.8 |
| 20260507130103 | 50 | 214 | 0.0 | 2.0 | 0.00 | 0.00 | 0.00 | 74 | 1019.8 |
| 20260507125604 | 50 | 214 | 0.0 | 2.0 | 0.00 | 0.00 | 0.00 | 74 | 1019.8 |
| 20260507125103 | 50 | 214 | 0.0 | 3.0 | 0.00 | 0.00 | 0.00 | 74 | 1019.7 |
| 20260507124604 | 50 | 214 | 1.0 | 3.0 | 0.00 | 0.00 | 0.00 | 75 | 1019.8 |
| 20260507124103 | 50 | 219 | 0.0 | 1.0 | 0.00 | 0.00 | 0.00 | 75 | 1019.8 |
| 20260507123604 | 50 | 215 | 0.0 | 0.0 | 0.00 | 0.00 | 0.00 | 75 | 1019.8 |
| 20260507122604 | 50 | 214 | 0.0 | 1.0 | 0.00 | 0.00 | 0.00 | 75 | 1019.9 |
| 20260507122104 | 50 | 220 | 0.0 | 1.0 | 0.00 | 0.00 | 0.00 | 74 | 1019.9 |
| 20260507121604 | 50 | 214 | 0.0 | 1.0 | 0.00 | 0.00 | 0.00 | 75 | 1019.9 |
| 20260507121105 | 50 | 215 | 0.0 | 1.0 | 0.00 | 0.00 | 0.00 | 74 | 1019.9 |
| 20260507120605 | 50 | 216 | 0.0 | 1.0 | 0.00 | 0.00 | 0.00 | 74 | 1020.0 |
| 20260507120105 | 50 | 213 | 0.0 | 1.0 | 0.00 | 0.00 | 0.00 | 74 | 1020.1 |
| 20260507115603 | 51 | 214 | 0.0 | 1.0 | 0.00 | 0.00 | 0.00 | 74 | 1020.1 |
| 20260507115103 | 51 | 218 | 0.0 | 1.0 | 0.00 | 0.00 | 0.00 | 74 | 1020.1 |
| 20260507114604 | 51 | 214 | 0.0 | 0.0 | 0.00 | 0.00 | 0.00 | 74 | 1020.2 |
| 20260507113605 | 51 | 214 | 0.0 | 2.0 | 0.00 | 0.00 | 0.00 | 74 | 1020.2 |
| 20260507113104 | 51 | 216 | 0.0 | 3.0 | 0.00 | 0.00 | 0.00 | 75 | 1020.3 |
| 20260507112603 | 51 | 216 | 0.0 | 3.0 | 0.00 | 0.00 | 0.00 | 75 | 1020.3 |
| 20260507112104 | 51 | 214 | 0.0 | 1.0 | 0.00 | 0.00 | 0.00 | 75 | 1020.2 |
| 20260507111603 | 51 | 217 | 0.0 | 0.0 | 0.00 | 0.00 | 0.00 | 75 | 1020.2 |
| 20260507111103 | 51 | 218 | 0.0 | 0.0 | 0.00 | 0.00 | 0.00 | 75 | 1020.3 |
| 20260507110604 | 51 | 216 | 0.0 | 2.0 | 0.00 | 0.00 | 0.00 | 75 | 1020.4 |
| 20260507110103 | 51 | 219 | 0.0 | 2.0 | 0.00 | 0.00 | 0.00 | 75 | 1020.4 |
| 20260507105104 | 51 | 219 | 0.0 | 1.0 | 0.00 | 0.00 | 0.00 | 75 | 1020.4 |
| 20260507104604 | 51 | 213 | 0.0 | 3.0 | 0.00 | 0.00 | 0.00 | 75 | 1020.4 |
| 20260507104104 | 51 | 216 | 1.0 | 3.0 | 0.00 | 0.00 | 0.00 | 75 | 1020.5 |
| 20260507103603 | 51 | 218 | 0.0 | 2.0 | 0.00 | 0.00 | 0.00 | 75 | 1020.6 |
| 20260507103103 | 51 | 216 | 0.0 | 0.0 | 0.00 | 0.00 | 0.00 | 75 | 1020.6 |
| 20260507102604 | 51 | 220 | 0.0 | 1.0 | 0.00 | 0.00 | 0.00 | 75 | 1020.6 |
| 20260507102104 | 51 | 210 | 0.0 | 1.0 | 0.00 | 0.00 | 0.00 | 75 | 1020.6 |
| 20260507101604 | 51 | 213 | 0.0 | 1.0 | 0.00 | 0.00 | 0.00 | 75 | 1020.7 |
| 20260507101105 | 51 | 221 | 0.0 | 1.0 | 0.00 | 0.00 | 0.00 | 75 | 1020.7 |
| 20260507100605 | 51 | 215 | 0.0 | 2.0 | 0.00 | 0.00 | 0.00 | 75 | 1020.8 |
| 20260507100105 | 51 | 211 | 0.0 | 2.0 | 0.00 | 0.00 | 0.00 | 76 | 1020.8 |
| 20260507095104 | 51 | 214 | 0.0 | 3.0 | 0.00 | 0.00 | 0.00 | 76 | 1020.8 |
| 20260507094603 | 51 | 213 | 2.0 | 3.0 | 0.00 | 0.00 | 0.00 | 76 | 1020.8 |
| 20260507094104 | 51 | 215 | 0.0 | 2.0 | 0.00 | 0.00 | 0.00 | 76 | 1020.8 |
| 20260507093604 | 51 | 225 | 0.0 | 2.0 | 0.00 | 0.00 | 0.00 | 76 | 1020.8 |
| 20260507093104 | 51 | 217 | 0.0 | 1.0 | 0.00 | 0.00 | 0.00 | 76 | 1020.8 |
| 20260507092605 | 51 | 219 | 0.0 | 0.0 | 0.00 | 0.00 | 0.00 | 76 | 1020.8 |
| 20260507091603 | 51 | 212 | 0.0 | 0.0 | 0.00 | 0.00 | 0.00 | 75 | 1020.8 |
| 20260507090606 | 51 | 204 | 0.0 | 0.0 | 0.00 | 0.00 | 0.00 | 75 | 1020.9 |
| 20260507090105 | 51 | 327 | 0.0 | 0.0 | 0.00 | 0.00 | 0.00 | 75 | 1020.9 |
| 20260507085606 | 51 | 207 | 0.0 | 1.0 | 0.00 | 0.00 | 0.00 | 75 | 1020.9 |
| 20260507084606 | 51 | 205 | 0.0 | 2.0 | 0.00 | 0.00 | 0.00 | 75 | 1021.0 |
| 20260507084105 | 51 | 205 | 0.0 | 2.0 | 0.00 | 0.00 | 0.00 | 75 | 1021.0 |
| 20260507083606 | 51 | 205 | 0.0 | 2.0 | 0.00 | 0.00 | 0.00 | 75 | 1021.0 |
| 20260507083105 | 52 | 196 | 0.0 | 2.0 | 0.00 | 0.00 | 0.00 | 76 | 1021.0 |
| 20260507081605 | 51 | 218 | 0.0 | 0.0 | 0.00 | 0.00 | 0.00 | 75 | 1021.0 |
| 20260507080607 | 51 | 208 | 0.0 | 3.0 | 0.00 | 0.00 | 0.00 | 75 | 1021.1 |
| 20260507080106 | 52 | 216 | 0.0 | 3.0 | 0.00 | 0.00 | 0.00 | 75 | 1021.1 |
| 20260507075606 | 52 | 211 | 0.0 | 3.0 | 0.00 | 0.00 | 0.00 | 75 | 1021.1 |
| 20260507075106 | 52 | 226 | 0.0 | 3.0 | 0.00 | 0.00 | 0.00 | 75 | 1021.1 |
| 20260507074606 | 52 | 224 | 0.0 | 3.0 | 0.00 | 0.00 | 0.00 | 76 | 1021.0 |
| 20260507074105 | 52 | 211 | 0.0 | 2.0 | 0.00 | 0.00 | 0.00 | 76 | 1021.0 |
| 20260507073605 | 52 | 215 | 0.0 | 2.0 | 0.00 | 0.00 | 0.00 | 76 | 1021.0 |
| 20260507073106 | 52 | 214 | 0.0 | 1.0 | 0.00 | 0.00 | 0.00 | 76 | 1021.0 |
| 20260507072607 | 52 | 215 | 0.0 | 1.0 | 0.00 | 0.00 | 0.00 | 76 | 1021.1 |
| 20260507072105 | 52 | 215 | 0.0 | 1.0 | 0.00 | 0.00 | 0.00 | 76 | 1021.1 |
| 20260507071606 | 52 | 210 | 0.0 | 2.0 | 0.00 | 0.00 | 0.00 | 76 | 1021.1 |
| 20260507071110 | 52 | 213 | 0.0 | 2.0 | 0.00 | 0.00 | 0.00 | 76 | 1021.1 |
| 20260507070606 | 52 | 206 | 0.0 | 2.0 | 0.00 | 0.00 | 0.00 | 76 | 1021.1 |
| 20260507070106 | 52 | 212 | 0.0 | 1.0 | 0.00 | 0.00 | 0.00 | 76 | 1021.1 |
| 20260507065607 | 52 | 212 | 0.0 | 1.0 | 0.00 | 0.00 | 0.00 | 76 | 1021.0 |
| 20260507065106 | 52 | 212 | 0.0 | 1.0 | 0.00 | 0.00 | 0.00 | 76 | 1021.0 |
| 20260507064605 | 52 | 211 | 0.0 | 1.0 | 0.00 | 0.00 | 0.00 | 76 | 1021.0 |
| 20260507064105 | 52 | 211 | 0.0 | 2.0 | 0.00 | 0.00 | 0.00 | 76 | 1021.0 |
| 20260507063605 | 52 | 211 | 0.0 | 2.0 | 0.00 | 0.00 | 0.00 | 77 | 1021.0 |
| 20260507063107 | 52 | 211 | 0.0 | 1.0 | 0.00 | 0.00 | 0.00 | 77 | 1021.0 |
| 20260507062605 | 52 | 211 | 0.0 | 2.0 | 0.00 | 0.00 | 0.00 | 77 | 1021.0 |
| 20260507062107 | 52 | 211 | 0.0 | 2.0 | 0.00 | 0.00 | 0.00 | 77 | 1021.0 |
| 20260507061106 | 52 | 211 | 0.0 | 1.0 | 0.00 | 0.00 | 0.00 | 77 | 1021.1 |
| 20260507060606 | 52 | 211 | 0.0 | 1.0 | 0.00 | 0.00 | 0.00 | 77 | 1021.1 |
| 20260507060106 | 52 | 211 | 0.0 | 1.0 | 0.00 | 0.00 | 0.00 | 77 | 1021.1 |
| 20260507055106 | 52 | 211 | 0.0 | 2.0 | 0.00 | 0.00 | 0.00 | 77 | 1021.1 |
| 20260507054607 | 52 | 211 | 0.0 | 1.0 | 0.00 | 0.00 | 0.00 | 77 | 1021.1 |
| 20260507054106 | 52 | 211 | 0.0 | 1.0 | 0.00 | 0.00 | 0.00 | 77 | 1021.1 |
| 20260507053606 | 52 | 211 | 0.0 | 2.0 | 0.00 | 0.00 | 0.00 | 77 | 1021.1 |
| 20260507052606 | 52 | 211 | 0.0 | 1.0 | 0.00 | 0.00 | 0.00 | 77 | 1021.2 |
| 20260507052105 | 52 | 211 | 0.0 | 2.0 | 0.00 | 0.00 | 0.00 | 77 | 1021.2 |
| 20260507051605 | 53 | 211 | 0.0 | 2.0 | 0.00 | 0.00 | 0.00 | 78 | 1021.2 |
| 20260507051106 | 53 | 211 | 0.0 | 2.0 | 0.00 | 0.00 | 0.00 | 78 | 1021.3 |
| 20260507050106 | 53 | 211 | 0.0 | 1.0 | 0.00 | 0.00 | 0.00 | 78 | 1021.2 |
| 20260507045106 | 53 | 211 | 0.0 | 2.0 | 0.00 | 0.00 | 0.00 | 78 | 1021.3 |
| 20260507044106 | 53 | 211 | 0.0 | 2.0 | 0.00 | 0.00 | 0.00 | 79 | 1021.3 |
| 20260507043605 | 53 | 211 | 0.0 | 2.0 | 0.00 | 0.00 | 0.00 | 79 | 1021.3 |
| 20260507042605 | 53 | 211 | 0.0 | 1.0 | 0.00 | 0.00 | 0.00 | 79 | 1021.2 |
| 20260507042106 | 53 | 211 | 0.0 | 2.0 | 0.00 | 0.00 | 0.00 | 79 | 1021.2 |
| 20260507041605 | 53 | 211 | 0.0 | 2.0 | 0.00 | 0.00 | 0.00 | 79 | 1021.1 |
| 20260507040605 | 54 | 211 | 0.0 | 2.0 | 0.00 | 0.00 | 0.00 | 79 | 1021.1 |
| 20260507040105 | 54 | 211 | 1.0 | 2.0 | 0.00 | 0.00 | 0.00 | 80 | 1021.0 |
| 20260507035607 | 54 | 211 | 0.0 | 2.0 | 0.00 | 0.00 | 0.00 | 80 | 1021.0 |
| 20260507035106 | 54 | 211 | 0.0 | 2.0 | 0.00 | 0.00 | 0.00 | 80 | 1021.0 |
| 20260507034606 | 54 | 211 | 0.0 | 2.0 | 0.00 | 0.00 | 0.00 | 80 | 1020.9 |
| 20260507034105 | 54 | 211 | 0.0 | 2.0 | 0.00 | 0.00 | 0.00 | 80 | 1020.9 |
| 20260507033105 | 54 | 211 | 0.0 | 1.0 | 0.00 | 0.00 | 0.00 | 80 | 1020.8 |
| 20260507032606 | 55 | 211 | 0.0 | 1.0 | 0.00 | 0.00 | 0.00 | 80 | 1020.8 |
| 20260507032105 | 55 | 211 | 0.0 | 1.0 | 0.00 | 0.00 | 0.00 | 80 | 1020.8 |
| 20260507031605 | 55 | 211 | 0.0 | 1.0 | 0.00 | 0.00 | 0.00 | 80 | 1020.8 |
| 20260507031106 | 55 | 211 | 0.0 | 1.0 | 0.00 | 0.00 | 0.00 | 79 | 1020.8 |
| 20260507030605 | 55 | 211 | 0.0 | 0.0 | 0.00 | 0.00 | 0.00 | 79 | 1020.8 |
| 20260507025605 | 55 | 211 | 0.0 | 2.0 | 0.00 | 0.00 | 0.00 | 79 | 1020.7 |
| 20260507025105 | 55 | 211 | 0.0 | 2.0 | 0.00 | 0.00 | 0.00 | 79 | 1020.7 |
| 20260507024605 | 55 | 210 | 0.0 | 2.0 | 0.00 | 0.00 | 0.00 | 79 | 1020.6 |
| 20260507024106 | 55 | 209 | 0.0 | 2.0 | 0.00 | 0.00 | 0.00 | 79 | 1020.7 |
| 20260507023605 | 55 | 209 | 0.0 | 1.0 | 0.00 | 0.00 | 0.00 | 79 | 1020.6 |
| 20260507022607 | 55 | 209 | 0.0 | 3.0 | 0.00 | 0.00 | 0.00 | 80 | 1020.6 |
| 20260507022107 | 55 | 209 | 0.0 | 2.0 | 0.00 | 0.00 | 0.00 | 80 | 1020.6 |
| 20260507021606 | 55 | 209 | 0.0 | 2.0 | 0.00 | 0.00 | 0.00 | 81 | 1020.7 |
| 20260507021105 | 55 | 209 | 0.0 | 2.0 | 0.00 | 0.00 | 0.00 | 81 | 1020.7 |
| 20260507020605 | 55 | 209 | 0.0 | 1.0 | 0.00 | 0.00 | 0.00 | 81 | 1020.7 |
| 20260507015605 | 55 | 297 | 0.0 | 2.0 | 0.00 | 0.00 | 0.00 | 81 | 1020.8 |
| 20260507015107 | 56 | 209 | 0.0 | 1.0 | 0.00 | 0.00 | 0.00 | 81 | 1020.7 |
| 20260507014605 | 56 | 209 | 0.0 | 1.0 | 0.00 | 0.00 | 0.00 | 81 | 1020.7 |
| 20260507014105 | 56 | 209 | 0.0 | 1.0 | 0.00 | 0.00 | 0.00 | 81 | 1020.7 |
| 20260507013606 | 56 | 209 | 0.0 | 1.0 | 0.00 | 0.00 | 0.00 | 81 | 1020.7 |
| 20260507013106 | 56 | 209 | 0.0 | 1.0 | 0.00 | 0.00 | 0.00 | 81 | 1020.7 |
| 20260507012607 | 56 | 209 | 0.0 | 1.0 | 0.00 | 0.00 | 0.00 | 81 | 1020.7 |
| 20260507011606 | 56 | 206 | 0.0 | 1.0 | 0.00 | 0.00 | 0.00 | 81 | 1020.7 |
| 20260507011106 | 56 | 209 | 0.0 | 2.0 | 0.00 | 0.00 | 0.00 | 81 | 1020.8 |
| 20260507010605 | 56 | 209 | 0.0 | 2.0 | 0.00 | 0.00 | 0.00 | 81 | 1020.9 |
| 20260507010104 | 56 | 209 | 0.0 | 1.0 | 0.00 | 0.00 | 0.00 | 81 | 1020.8 |
| 20260507005605 | 56 | 209 | 0.0 | 1.0 | 0.00 | 0.00 | 0.00 | 81 | 1020.9 |
| 20260507005105 | 57 | 209 | 0.0 | 1.0 | 0.00 | 0.00 | 0.00 | 81 | 1020.9 |
| 20260507004606 | 57 | 209 | 0.0 | 1.0 | 0.00 | 0.00 | 0.00 | 81 | 1020.9 |
| 20260507004104 | 57 | 209 | 0.0 | 1.0 | 0.00 | 0.00 | 0.00 | 81 | 1020.9 |
| 20260507003606 | 57 | 209 | 0.0 | 1.0 | 0.00 | 0.00 | 0.00 | 81 | 1020.9 |
| 20260507003104 | 57 | 209 | 0.0 | 1.0 | 0.00 | 0.00 | 0.00 | 81 | 1020.9 |
| 20260507002606 | 57 | 209 | 0.0 | 1.0 | 0.00 | 0.00 | 0.00 | 80 | 1020.9 |
| 20260507002105 | 57 | 209 | 0.0 | 1.0 | 0.00 | 0.00 | 0.00 | 80 | 1020.8 |
| 20260507001604 | 57 | 209 | 0.0 | 1.0 | 0.00 | 0.00 | 0.00 | 80 | 1020.9 |
| 20260507001105 | 58 | 209 | 0.0 | 1.0 | 0.00 | 0.00 | 0.00 | 79 | 1020.9 |
| 20260506235605 | 58 | 209 | 0.0 | 1.0 | 0.00 | 0.00 | 0.00 | 78 | 1021.0 |
| 20260506235105 | 58 | 209 | 0.0 | 2.0 | 0.00 | 0.00 | 0.00 | 78 | 1021.0 |
| 20260506234605 | 58 | 209 | 0.0 | 2.0 | 0.00 | 0.00 | 0.00 | 77 | 1021.0 |
| 20260506233604 | 58 | 210 | 0.0 | 2.0 | 0.00 | 0.00 | 0.00 | 77 | 1021.0 |
| 20260506232605 | 59 | 307 | 0.0 | 2.0 | 0.00 | 0.00 | 0.00 | 77 | 1021.1 |
| 20260506232106 | 59 | 307 | 1.0 | 2.0 | 0.00 | 0.00 | 0.00 | 77 | 1021.1 |
| 20260506231604 | 59 | 307 | 0.0 | 2.0 | 0.00 | 0.00 | 0.00 | 77 | 1021.1 |
| 20260506231105 | 59 | 307 | 0.0 | 3.0 | 0.00 | 0.00 | 0.00 | 76 | 1021.1 |
| 20260506230604 | 59 | 307 | 0.0 | 3.0 | 0.00 | 0.00 | 0.00 | 76 | 1021.1 |
| 20260506225605 | 59 | 306 | 0.0 | 2.0 | 0.00 | 0.00 | 0.00 | 76 | 1021.2 |
| 20260506225104 | 59 | 306 | 0.0 | 2.0 | 0.00 | 0.00 | 0.00 | 76 | 1021.2 |
| 20260506224104 | 59 | 306 | 0.0 | 2.0 | 0.00 | 0.00 | 0.00 | 76 | 1021.2 |
| 20260506223605 | 60 | 306 | 0.0 | 1.0 | 0.00 | 0.00 | 0.00 | 76 | 1021.2 |
| 20260506223104 | 60 | 296 | 0.0 | 3.0 | 0.00 | 0.00 | 0.00 | 78 | 1021.2 |
| 20260506222605 | 60 | 210 | 0.0 | 3.0 | 0.00 | 0.00 | 0.00 | 78 | 1021.2 |
| 20260506222107 | 60 | 197 | 0.0 | 3.0 | 0.00 | 0.00 | 0.00 | 79 | 1021.2 |
| 20260506221605 | 59 | 195 | 0.0 | 3.0 | 0.00 | 0.00 | 0.00 | 79 | 1021.3 |
| 20260506221105 | 59 | 195 | 1.0 | 3.0 | 0.00 | 0.00 | 0.00 | 80 | 1021.3 |
| 20260506220605 | 59 | 195 | 0.0 | 3.0 | 0.00 | 0.00 | 0.00 | 80 | 1021.2 |
| 20260506220105 | 58 | 195 | 1.0 | 3.0 | 0.00 | 0.00 | 0.00 | 81 | 1021.3 |
| 20260506215605 | 58 | 195 | 0.0 | 3.0 | 0.00 | 0.00 | 0.00 | 81 | 1021.3 |
| 20260506215104 | 58 | 198 | 0.0 | 3.0 | 0.00 | 0.00 | 0.00 | 81 | 1021.3 |
| 20260506213604 | 57 | 210 | 0.0 | 1.0 | 0.00 | 0.00 | 0.00 | 81 | 1021.3 |
| 20260506213104 | 57 | 210 | 0.0 | 3.0 | 0.00 | 0.00 | 0.00 | 82 | 1021.3 |
| 20260506212604 | 57 | 210 | 0.0 | 3.0 | 0.00 | 0.00 | 0.00 | 81 | 1021.3 |
| 20260506212105 | 57 | 209 | 1.0 | 2.0 | 0.00 | 0.00 | 0.00 | 81 | 1021.3 |
| 20260506211604 | 57 | 209 | 0.0 | 2.0 | 0.00 | 0.00 | 0.00 | 81 | 1021.3 |
| 20260506210604 | 57 | 209 | 0.0 | 2.0 | 0.00 | 0.00 | 0.00 | 80 | 1021.3 |
| 20260506210104 | 57 | 195 | 0.0 | 2.0 | 0.00 | 0.00 | 0.00 | 80 | 1021.2 |
| 20260506205604 | 57 | 195 | 0.0 | 2.0 | 0.00 | 0.00 | 0.00 | 80 | 1021.3 |
| 20260506205104 | 57 | 195 | 0.0 | 2.0 | 0.00 | 0.00 | 0.00 | 80 | 1021.3 |
| 20260506204606 | 57 | 195 | 0.0 | 1.0 | 0.00 | 0.00 | 0.00 | 80 | 1021.2 |
| 20260506204105 | 57 | 195 | 0.0 | 1.0 | 0.00 | 0.00 | 0.00 | 80 | 1021.3 |
| 20260506203605 | 57 | 195 | 0.0 | 1.0 | 0.00 | 0.00 | 0.00 | 79 | 1021.2 |
| 20260506203106 | 57 | 195 | 0.0 | 1.0 | 0.00 | 0.00 | 0.00 | 80 | 1021.1 |
| 20260506202604 | 58 | 195 | 0.0 | 1.0 | 0.00 | 0.00 | 0.00 | 80 | 1021.1 |
| 20260506202104 | 58 | 195 | 0.0 | 2.0 | 0.00 | 0.00 | 0.00 | 80 | 1021.1 |
| 20260506201604 | 58 | 195 | 0.0 | 2.0 | 0.00 | 0.00 | 0.00 | 80 | 1021.0 |
| 20260506201106 | 57 | 195 | 0.0 | 1.0 | 0.00 | 0.00 | 0.00 | 80 | 1021.0 |
| 20260506200106 | 57 | 195 | 0.0 | 1.0 | 0.00 | 0.00 | 0.00 | 80 | 1021.0 |
| 20260506195105 | 57 | 195 | 0.0 | 2.0 | 0.00 | 0.00 | 0.00 | 81 | 1020.9 |
| 20260506193105 | 57 | 195 | 0.0 | 1.0 | 0.00 | 0.00 | 0.00 | 81 | 1020.8 |
| 20260506192604 | 57 | 195 | 0.0 | 2.0 | 0.00 | 0.00 | 0.00 | 80 | 1020.8 |
| 20260506192104 | 57 | 209 | 0.0 | 2.0 | 0.00 | 0.00 | 0.00 | 80 | 1020.7 |
| 20260506191605 | 57 | 209 | 0.0 | 3.0 | 0.00 | 0.00 | 0.00 | 80 | 1020.7 |
| 20260506191104 | 57 | 209 | 0.0 | 3.0 | 0.00 | 0.00 | 0.00 | 80 | 1020.7 |
| 20260506190604 | 57 | 209 | 0.0 | 3.0 | 0.00 | 0.00 | 0.00 | 80 | 1020.6 |
| 20260506190104 | 57 | 209 | 0.0 | 1.0 | 0.00 | 0.00 | 0.00 | 80 | 1020.6 |
| 20260506185605 | 57 | 209 | 0.0 | 1.0 | 0.00 | 0.00 | 0.00 | 80 | 1020.5 |
| 20260506185105 | 57 | 209 | 0.0 | 2.0 | 0.00 | 0.00 | 0.00 | 80 | 1020.5 |
| 20260506184604 | 57 | 209 | 0.0 | 2.0 | 0.00 | 0.00 | 0.00 | 80 | 1020.5 |
| 20260506184104 | 57 | 209 | 0.0 | 2.0 | 0.00 | 0.00 | 0.00 | 80 | 1020.6 |
| 20260506183605 | 57 | 209 | 0.0 | 1.0 | 0.00 | 0.00 | 0.00 | 81 | 1020.4 |
| 20260506183104 | 57 | 209 | 0.0 | 1.0 | 0.00 | 0.00 | 0.00 | 81 | 1020.5 |
| 20260506182604 | 56 | 209 | 0.0 | 2.0 | 0.00 | 0.00 | 0.00 | 80 | 1020.5 |
| 20260506182104 | 56 | 209 | 0.0 | 2.0 | 0.00 | 0.00 | 0.00 | 80 | 1020.5 |
| 20260506181604 | 56 | 209 | 0.0 | 3.0 | 0.00 | 0.00 | 0.00 | 80 | 1020.4 |
| 20260506181103 | 56 | 209 | 0.0 | 3.0 | 0.00 | 0.00 | 0.00 | 80 | 1020.4 |
| 20260506180604 | 56 | 209 | 1.0 | 3.0 | 0.00 | 0.00 | 0.00 | 80 | 1020.4 |
| 20260506180104 | 56 | 209 | 0.0 | 3.0 | 0.00 | 0.00 | 0.00 | 80 | 1020.3 |
| 20260506175605 | 56 | 209 | 1.0 | 3.0 | 0.00 | 0.00 | 0.00 | 80 | 1020.3 |
| 20260506174604 | 56 | 209 | 0.0 | 1.0 | 0.00 | 0.00 | 0.00 | 81 | 1020.3 |
| 20260506174104 | 56 | 209 | 0.0 | 1.0 | 0.00 | 0.00 | 0.00 | 81 | 1020.3 |
| 20260506173605 | 56 | 209 | 0.0 | 1.0 | 0.00 | 0.00 | 0.00 | 81 | 1020.2 |
| 20260506173104 | 56 | 209 | 0.0 | 1.0 | 0.00 | 0.00 | 0.00 | 81 | 1020.2 |
| 20260506172604 | 56 | 209 | 0.0 | 1.0 | 0.00 | 0.00 | 0.00 | 82 | 1020.2 |
| 20260506172104 | 55 | 209 | 0.0 | 2.0 | 0.00 | 0.00 | 0.00 | 82 | 1020.2 |
| 20260506171604 | 55 | 209 | 0.0 | 2.0 | 0.00 | 0.00 | 0.00 | 82 | 1020.1 |
| 20260506165104 | 55 | 209 | 0.0 | 1.0 | 0.00 | 0.00 | 0.00 | 82 | 1020.0 |
| 20260506164604 | 55 | 209 | 0.0 | 1.0 | 0.00 | 0.00 | 0.00 | 82 | 1019.9 |
| 20260506164104 | 55 | 209 | 0.0 | 1.0 | 0.00 | 0.00 | 0.00 | 82 | 1019.9 |
| 20260506163604 | 54 | 209 | 0.0 | 1.0 | 0.00 | 0.00 | 0.00 | 82 | 1019.9 |
| 20260506162605 | 54 | 209 | 0.0 | 2.0 | 0.00 | 0.00 | 0.00 | 82 | 1019.8 |
| 20260506162104 | 54 | 209 | 0.0 | 1.0 | 0.00 | 0.00 | 0.00 | 82 | 1019.8 |
| 20260506161605 | 54 | 209 | 0.0 | 1.0 | 0.00 | 0.00 | 0.00 | 82 | 1019.7 |
| 20260506160105 | 54 | 209 | 0.0 | 2.0 | 0.00 | 0.00 | 0.00 | 83 | 1019.8 |
| 20260506155605 | 54 | 209 | 0.0 | 1.0 | 0.00 | 0.00 | 0.00 | 83 | 1019.7 |
| 20260506155104 | 54 | 209 | 0.0 | 1.0 | 0.00 | 0.00 | 0.00 | 83 | 1019.7 |
| 20260506154604 | 54 | 209 | 0.0 | 2.0 | 0.00 | 0.00 | 0.00 | 83 | 1019.5 |
| 20260506154105 | 54 | 209 | 0.0 | 2.0 | 0.00 | 0.00 | 0.00 | 83 | 1019.5 |
| 20260506153105 | 54 | 209 | 0.0 | 2.0 | 0.00 | 0.00 | 0.00 | 84 | 1019.4 |
| 20260506152105 | 54 | 209 | 0.0 | 2.0 | 0.00 | 0.00 | 0.00 | 84 | 1019.3 |